Location: Omaha
(41.2590°N, 95.9380°W)
Time: 02:36:15
(UTC-05:00)

Vanguard 3 - Visible Passes

Search period start: 18 October 2017 00:00
Search period end: 28 October 2017 00:00
Orbit: 510 x 3263 km, 33.3° (Epoch: 17 October)

Date Brightness Start Highest point End Pass type
(mag) Time Alt. Az. Time Alt. Az. Time Alt. Az.
18 Oct 10.9 03:05:33 13° SE 03:05:33 13° SE 03:09:56 10° ESE visible
18 Oct 9.9 05:10:10 17° SSW 05:18:13 31° SSE 05:25:35 10° ESE visible
19 Oct 10.3 04:00:56 23° S 04:03:30 25° SSE 04:11:38 10° ESE visible
19 Oct 9.3 06:05:33 11° SW 06:16:54 41° S 06:23:56 10° E visible
20 Oct 10.8 02:51:37 17° SE 02:51:37 17° SE 02:56:22 10° ESE visible
20 Oct 9.8 04:56:14 26° SSW 05:02:23 36° SSE 05:10:41 10° E visible
20 Oct 8.9 07:04:12 10° WSW 07:15:24 49° S 07:21:46 10° ESE visible
21 Oct 10.2 03:46:50 30° SSE 03:47:29 30° SSE 03:56:50 10° E visible
21 Oct 9.3 05:51:26 19° SW 06:01:09 47° S 06:08:54 10° E visible
22 Oct 10.7 02:37:23 19° ESE 02:37:23 19° ESE 02:41:56 10° ESE visible
22 Oct 9.7 04:41:58 35° SSW 04:46:26 42° SSE 04:55:38 10° E visible
22 Oct 9.0 06:47:19 10° WSW 06:59:44 53° S 07:06:43 10° ESE visible
23 Oct 10.1 03:32:27 35° SSE 03:32:27 35° SSE 03:41:48 10° E visible
23 Oct 9.3 05:37:03 26° SW 05:45:17 52° S 05:53:48 10° E visible
24 Oct 10.8 02:22:53 20° ESE 02:22:53 20° ESE 02:27:03 10° E visible
24 Oct 9.7 04:27:28 44° S 04:30:21 48° SSE 04:40:28 10° E visible
24 Oct 9.0 06:32:03 14° WSW 06:43:58 56° S 06:51:36 10° ESE visible
25 Oct 10.1 03:17:50 38° SE 03:17:50 38° SE 03:26:35 10° E visible
25 Oct 9.3 05:22:25 34° SW 05:29:19 56° S 05:38:36 10° E visible
26 Oct 10.8 02:08:11 20° ESE 02:08:11 20° ESE 02:11:53 10° E visible
26 Oct 9.6 04:12:46 51° S 04:14:08 52° SSE 04:25:10 10° E visible
26 Oct 9.1 06:17:21 19° WSW 06:28:06 58° S 06:36:25 10° ESE visible
27 Oct 10.2 03:03:04 38° SE 03:03:04 38° SE 03:11:13 10° E visible
27 Oct 9.4 05:07:38 42° SW 05:13:14 60° S 05:23:20 10° E visible
27 Oct 9.1 07:13:38 10° W 07:26:32 49° SSW 07:33:54 10° SE visible
